FW8987 Weather Reports


time (UTC)temp
F
wind
direction
speed
knots
gust
knots
rain 1hr
in
rain 24hr
in
rain mn
in
humidity
%
barometer
mb
20260903162026 65 245 3.5 5.2 0.00 0.00 0.00 52 1003.3
20260903161022 64 239 3.5 5.2 0.00 0.00 0.00 52 1003.3
20260903160018 65 244 2.6 7.0 0.00 0.00 0.00 51 1003.4
20260903155033 64 245 2.6 6.1 0.00 0.00 0.00 52 1003.4
20260903154028 66 259 4.3 8.7 0.00 0.00 0.00 49 1003.3
20260903153023 66 258 3.5 7.0 0.00 0.00 0.00 49 1003.3
20260903152019 65 247 3.5 7.0 0.00 0.00 0.00 51 1003.4
20260903151055 64 224 2.6 3.5 0.00 0.00 0.00 52 1003.6
20260903150030 66 263 3.5 6.1 0.00 0.00 0.00 50 1003.4
20260903145024 66 248 2.6 5.2 0.00 0.00 0.00 50 1003.5
20260903144019 66 244 4.3 7.8 0.00 0.00 0.00 50 1003.5
20260903143034 66 252 5.2 9.6 0.00 0.00 0.00 49 1003.6
20260903142050 66 242 5.2 7.8 0.00 0.00 0.00 50 1003.6
20260903141025 66 254 6.1 9.6 0.00 0.00 0.00 49 1003.4
20260903140020 66 240 5.2 9.6 0.00 0.00 0.00 50 1003.6
20260903135036 67 229 2.6 7.0 0.00 0.00 0.00 50 1003.6
20260903134212 66 244 5.2 8.7 0.00 0.00 0.00 49 1003.6
20260903133026 66 246 5.2 9.6 0.00 0.00 0.00 50 1003.6
20260903132042 64 278 5.2 8.7 0.00 0.00 0.00 50 1003.7
20260903131037 64 260 1.7 3.5 0.00 0.00 0.00 53 1003.6
20260903130033 63 250 4.3 9.6 0.00 0.00 0.00 52 1003.6
20260903125028 64 243 3.5 8.7 0.00 0.00 0.00 53 1003.5
20260903124043 65 235 5.2 9.6 0.00 0.00 0.00 51 1003.5
20260903123018 65 240 3.5 7.8 0.00 0.00 0.00 52 1003.5
20260903122034 64 237 3.5 7.8 0.00 0.00 0.00 54 1003.6
20260903121029 64 238 3.5 7.0 0.00 0.00 0.00 53 1003.6
20260903120024 66 258 4.3 7.0 0.00 0.00 0.00 52 1003.4
20260903115020 65 245 5.2 9.6 0.00 0.00 0.00 53 1003.5
20260903114035 65 256 5.2 7.8 0.00 0.00 0.00 52 1003.6
20260903113031 64 274 7.0 12.2 0.00 0.00 0.00 51 1003.5
20260903112025 64 271 6.1 12.2 0.00 0.00 0.00 51 1003.6
20260903111020 64 248 4.3 7.8 0.00 0.00 0.00 53 1003.6
20260903110036 64 250 6.1 8.7 0.00 0.00 0.00 52 1003.7
20260903105031 64 272 5.2 8.7 0.00 0.00 0.00 52 1003.6
20260903104026 64 245 6.1 9.6 0.00 0.00 0.00 54 1003.6
20260903103101 64 237 5.2 8.7 0.00 0.00 0.00 54 1003.7
20260903102016 63 242 3.5 7.8 0.00 0.00 0.00 55 1003.5
20260903101031 63 226 3.5 7.0 0.00 0.00 0.00 56 1003.5
20260903100026 63 244 3.5 7.8 0.00 0.00 0.00 57 1003.6
20260903095021 63 237 2.6 5.2 0.00 0.00 0.00 57 1003.7
20260903094016 63 272 3.5 6.1 0.00 0.00 0.00 58 1003.5
20260903093034 62 268 3.5 7.0 0.00 0.00 0.00 60 1003.8
20260903092029 61 239 2.6 5.2 0.00 0.00 0.00 60 1003.8
20260903091024 61 240 3.5 6.1 0.00 0.00 0.00 61 1003.7
20260903090019 60 233 1.7 3.5 0.00 0.00 0.00 62 1003.7
20260903085034 61 271 3.5 6.1 0.00 0.00 0.00 62 1003.6
20260903084030 60 242 3.5 7.0 0.00 0.00 0.00 63 1003.7
20260903083025 59 252 3.5 6.1 0.00 0.00 0.00 64 1003.7
20260903082020 59 240 3.5 7.0 0.00 0.00 0.00 66 1003.8
20260903081056 59 238 4.3 7.8 0.00 0.00 0.00 67 1003.9
20260903080050 58 233 2.6 7.8 0.00 0.00 0.00 69 1003.7
20260903075026 58 269 3.5 7.0 0.00 0.00 0.00 70 1003.8
20260903074021 58 236 2.6 5.2 0.00 0.00 0.00 73 1003.9
20260903073018 57 263 3.5 5.2 0.00 0.00 0.00 75 1003.9
20260903072033 56 237 3.5 7.0 0.00 0.00 0.00 77 1003.9
20260903071028 55 237 4.3 7.0 0.00 0.00 0.00 79 1003.9
20260903070023 53 246 4.3 7.8 0.00 0.00 0.00 81 1003.8
20260903065039 53 230 3.5 7.0 0.00 0.00 0.00 83 1003.9
20260903064034 53 239 4.3 7.8 0.00 0.00 0.00 83 1003.9
20260903063110 53 227 2.6 5.2 0.00 0.00 0.00 85 1004.0
20260903062026 53 237 4.3 7.8 0.00 0.00 0.00 84 1004.0
20260903061020 53 238 3.5 8.7 0.00 0.00 0.00 84 1004.1
20260903060034 53 242 4.3 8.7 0.00 0.00 0.00 85 1004.0
20260903055030 53 226 3.5 7.0 0.00 0.00 0.00 86 1004.0
20260903054024 53 243 4.3 7.0 0.00 0.00 0.00 86 1004.0
20260903053019 53 221 2.6 5.2 0.00 0.00 0.00 88 1004.0
20260903052055 52 196 1.7 5.2 0.00 0.00 0.00 87 1004.0
20260903051030 52 190 1.7 3.5 0.00 0.00 0.00 88 1004.1
20260903050026 51 203 1.7 5.2 0.00 0.00 0.00 89 1004.1
20260903045020 50 213 0.9 2.6 0.00 0.00 0.00 91 1004.2
20260903044015 49 171 0.0 1.7 0.00 0.00 0.00 92 1004.0
20260903043030 49 201 0.9 2.6 0.00 0.00 0.00 92 1003.8
20260903042025 49 199 0.9 3.5 0.00 0.00 0.00 92 1004.0
20260903041022 49 204 0.9 2.6 0.00 0.00 0.00 92 1004.0
20260903040016 50 223 1.7 6.1 0.00 0.00 0.00 91 1003.9
20260903035031 50 231 1.7 6.1 0.00 0.00 0.00 91 1004.0
20260903034027 50 223 1.7 5.2 0.00 0.00 0.00 91 1004.1
20260903033022 50 221 1.7 2.6 0.00 0.00 0.00 92 1004.0
20260903032019 49 216 1.7 5.2 0.00 0.00 0.00 93 1004.0
20260903031033 48 218 1.7 5.2 0.00 0.00 0.00 96 1003.8
20260903030053 49 201 0.0 1.7 0.00 0.00 0.00 94 1003.9
20260903025024 49 238 0.9 1.7 0.00 0.00 0.00 94 1004.1
20260903024019 49 0.0 0.0 0.00 0.00 0.00 92 1004.2
20260903023055 52 215 0.9 3.5 0.00 0.00 0.00 89 1004.2
20260903022051 51 218 1.7 5.2 0.00 0.00 0.00 89 1004.3
20260903021026 51 232 2.6 5.2 0.00 0.00 0.00 91 1004.4
20260903020021 49 197 0.9 2.6 0.00 0.00 0.00 94 1004.3
20260903015037 49 194 0.0 0.9 0.00 0.00 0.00 94 1004.4
20260903014032 50 190 0.0 1.7 0.00 0.00 0.00 93 1004.5
20260903013026 50 213 0.0 2.6 0.00 0.00 0.00 91 1004.5
20260903012022 51 199 0.9 1.7 0.00 0.00 0.00 90 1004.5
20260903011017 51 220 1.7 3.5 0.00 0.00 0.00 90 1004.6
20260903010033 52 214 1.7 5.2 0.00 0.00 0.00 89 1004.6
20260903005027 52 224 1.7 6.1 0.00 0.00 0.00 87 1004.5
20260903004023 53 209 0.9 2.6 0.00 0.00 0.00 87 1004.6
20260903003018 52 223 1.7 5.2 0.00 0.00 0.00 87 1004.6
20260903002034 51 221 2.6 3.5 0.00 0.00 0.00 88 1004.8
20260903001029 54 209 0.9 2.6 0.00 0.00 0.00 84 1004.8
20260903000025 54 241 2.6 3.5 0.00 0.00 0.00 84 1004.7
20260902235019 52 243 1.7 5.2 0.00 0.00 0.00 87 1004.8
20260902234035 50 200 0.0 0.9 0.00 0.00 0.00 90 1004.7
20260902233030 49 163 0.0 0.9 0.00 0.00 0.00 91 1004.7
20260902232025 48 0.0 0.0 0.00 0.00 0.00 91 1004.7
20260902231020 49 161 0.0 0.9 0.00 0.00 0.00 89 1004.7
20260902230016 49 142 0.0 1.7 0.00 0.00 0.00 89 1004.7
20260902225031 49 157 0.0 0.9 0.00 0.00 0.00 89 1004.7
20260902224026 49 167 0.0 0.9 0.00 0.00 0.00 88 1004.8
20260902223042 49 0.0 0.0 0.00 0.00 0.00 89 1004.9
20260902222016 49 0.0 0.0 0.00 0.00 0.00 89 1004.7
20260902221032 49 158 0.0 0.9 0.00 0.00 0.00 88 1004.8
20260902220047 50 163 0.0 0.9 0.00 0.00 0.00 87 1004.8
20260902215022 51 165 0.0 0.9 0.00 0.00 0.00 85 1004.8
20260902214018 51 170 0.0 0.9 0.00 0.00 0.00 83 1004.8
20260902213052 53 156 0.0 0.9 0.00 0.00 0.00 79 1004.9
20260902212027 54 203 0.0 2.6 0.00 0.00 0.00 77 1004.9
20260902211022 54 208 0.9 3.5 0.00 0.00 0.00 77 1004.7
20260902210018 54 202 0.9 2.6 0.00 0.00 0.00 78 1004.7
20260902205034 52 221 0.0 1.7 0.00 0.00 0.00 81 1004.7
20260902204029 53 185 0.0 0.9 0.00 0.00 0.00 81 1004.7
20260902203024 52 0.0 0.0 0.00 0.00 0.00 83 1004.7
20260902202020 52 172 0.0 0.9 0.00 0.00 0.00 83 1004.7
20260902201035 52 182 0.0 0.9 0.00 0.00 0.00 84 1004.7
20260902200030 52 0.0 0.0 0.00 0.00 0.00 84 1004.6
20260902195025 53 157 0.0 0.9 0.00 0.00 0.00 83 1004.6
20260902194021 55 0.0 0.0 0.00 0.00 0.00 79 1004.7
20260902193017 55 213 0.9 1.7 0.00 0.00 0.00 77 1004.7
20260902192032 54 190 0.0 0.9 0.00 0.00 0.00 79 1004.7
20260902191026 55 0.0 0.0 0.00 0.00 0.00 77 1004.7
20260902190043 56 0.0 0.0 0.00 0.00 0.00 76 1004.6
20260902185018 56 0.0 0.0 0.00 0.00 0.00 75 1004.5
20260902184033 57 0.0 0.0 0.00 0.00 0.00 73 1004.6
20260902183049 58 190 0.0 0.9 0.00 0.00 0.00 71 1004.6
20260902182024 59 189 0.0 1.7 0.00 0.00 0.00 69 1004.6
20260902181019 59 189 0.0 0.9 0.00 0.00 0.00 69 1004.4
20260902180015 60 186 0.0 1.7 0.00 0.00 0.00 67 1004.4
20260902175031 61 185 0.0 1.7 0.00 0.00 0.00 65 1004.4
20260902174026 62 210 0.9 2.6 0.00 0.00 0.00 64 1004.3
20260902173020 63 201 0.9 3.5 0.00 0.00 0.00 61 1004.2
20260902172056 64 217 0.9 3.5 0.00 0.00 0.00 59 1004.2
20260902171052 65 207 1.7 6.1 0.00 0.00 0.00 57 1004.1
20260902170027 66 219 1.7 3.5 0.00 0.00 0.00 57 1004.2
20260902165042 66 230 2.6 7.0 0.00 0.00 0.00 55 1004.1
20260902164017 66 206 2.6 7.8 0.00 0.00 0.00 55 1003.9
20260902163033 67 215 1.7 3.5 0.00 0.00 0.00 56 1003.9